Location: Newark
(39.1833°N, 3.3000°W)
Time: 23:52:52
(UTC+00:00)

Tiangong 2 - Visible Passes

Search period start: 21 March 2019 00:00
Search period end: 31 March 2019 00:00
Orbit: 379 x 390 km, 42.8° (Epoch: 21 March)

Date Brightness Start Highest point End Pass type
(mag) Time Alt. Az. Time Alt. Az. Time Alt. Az.
21 Mar 3.3 04:07:14 27° ENE 04:07:14 27° ENE 04:08:55 10° E visible
21 Mar 1.5 05:39:31 10° WNW 05:42:35 46° SSW 05:45:39 10° SE visible
22 Mar 0.9 04:42:57 74° WSW 04:43:09 79° SSW 04:46:19 10° ESE visible
23 Mar 4.3 03:46:33 12° E 03:46:33 12° E 03:46:49 10° E visible
23 Mar 2.3 05:18:49 19° WSW 05:20:14 26° SSW 05:22:57 10° SSE visible
24 Mar 3.0 04:22:34 22° SE 04:22:34 22° SE 04:23:54 10° SE visible
25 Mar 3.3 04:58:45 13° SSW 04:58:45 13° SSW 04:59:39 10° S visible
28 Mar 3.8 20:07:13 10° SSW 20:07:15 10° SSW 20:07:15 10° SSW visible
29 Mar 3.3 19:09:18 10° SSE 19:10:18 11° SE 19:11:17 10° ESE visible
29 Mar 4.1 20:43:29 10° WSW 20:43:41 11° WSW 20:43:41 11° WSW visible
30 Mar 1.7 19:44:13 10° SW 19:47:07 35° SSE 19:47:38 33° SE visible
